Wind_Speed
22 23 24 25 25 26 25 25 25 24 24 23 22 22 23 23 23 24 24 25 25 26 26 27 27 27 27 27 27 27 27 27 27 27 26 26 26 26 26 27 27 27 28 28 28 28 28 29 29 30 30 31 32 33 33 34 34 35 35 36 37 37 37 37 37 38 38 38 38
23 24 25 25 25 25 25 25 24 23 23 22 22 23 23 23 24 24 25 25 26 26 27 27 28 28 28 28 28 28 28 28 28 28 28 28 28 28 28 28 28 28 29 29 29 29 29 30 30 30 31 32 32 33 34 35 35 36 37 37 38 38 38 38 38 38 38 38 38
23 24 24 24 24 24 24 23 23 22 22 22 22 23 23 24 25 26 26 27 27 27 28 28 29 29 29 29 29 29 29 29 29 30 30 30 30 29 29 30 30 30 30 30 31 31 31 31 31 31 32 32 33 34 35 35 36 36 37 38 38 38 38 38 38 38 38 38 38
23 23 23 23 22 22 22 22 21 21 22 22 23 24 24 25 26 27 28 28 29 29 29 30 30 30 30 30 30 30 30 31 31 31 32 32 32 32 32 32 32 32 32 32 33 33 33 33 33 33 33 33 33 34 35 35 36 36 36 37 37 37 38 38 38 38 38 38 38
23 22 22 21 21 21 21 21 21 22 22 23 24 25 26 27 27 28 29 30 30 30 31 31 31 32 32 32 32 32 32 32 32 33 33 33 33 33 33 34 34 34 34 34 34 34 34 34 34 33 34 34 34 35 36 36 36 36 36 36 36 36 37 37 38 38 38 38 38
22 21 21 21 21 21 21 21 22 22 23 24 25 26 27 28 28 29 30 30 31 31 32 32 33 33 33 33 34 34 34 34 34 34 34 35 35 35 35 35 35 35 36 36 36 36 35 35 34 34 34 35 35 36 37 37 37 37 37 37 36 36 36 37 37 37 38 38 38
21 21 20 21 21 21 21 22 23 23 24 25 26 27 28 29 29 30 31 31 32 32 32 33 33 34 34 35 35 35 35 36 36 36 36 36 36 36 36 36 36 36 37 37 37 37 36 36 35 35 35 35 36 37 37 37 37 37 37 37 37 37 37 37 37 37 37 38 39
21 20 20 21 21 22 22 23 24 25 26 27 28 28 29 30 31 31 32 32 32 33 33 34 34 34 35 35 36 36 37 37 37 37 37 37 37 37 37 37 37 38 37 37 37 37 37 36 36 35 35 35 36 36 37 37 36 36 37 38 38 38 38 38 38 38 38 39 39
20 21 21 22 22 23 24 25 25 26 27 28 29 30 31 31 32 33 33 33 33 33 34 34 34 35 35 36 36 37 37 37 38 38 38 38 38 38 38 38 39 39 38 38 38 38 38 37 37 37 36 36 36 36 36 36 36 36 37 38 38 39 39 39 39 39 39 39 39
21 21 22 23 24 25 25 26 27 28 29 30 31 32 32 33 33 33 33 33 34 34 34 34 35 35 35 36 37 37 37 37 38 38 38 38 38 38 39 39 39 39 39 39 39 39 39 39 39 39 39 38 38 38 38 37 37 37 38 38 39 40 40 40 40 40 40 40 40
22 22 23 24 25 26 28 29 30 31 32 32 33 34 34 34 34 34 34 34 34 34 34 34 34 35 36 36 37 37 37 37 37 37 37 37 38 38 38 38 39 39 39 39 39 39 39 39 40 40 40 40 40 40 40 39 39 39 40 40 40 41 41 42 42 42 42 42 42
23 24 25 26 27 29 30 31 32 33 34 34 35 35 35 35 34 34 34 34 34 34 34 34 35 35 36 36 37 37 37 36 36 36 37 37 37 38 38 38 38 38 39 39 39 39 39 39 40 40 40 41 40 40 40 41 41 41 41 42 42 42 42 43 43 43 43 43 43
24 26 27 28 29 31 32 33 34 34 35 35 35 35 35 35 34 34 34 35 35 35 35 35 35 36 36 36 36 36 36 36 36 36 36 37 37 37 37 38 38 38 38 38 38 38 39 39 40 40 40 40 41 41 41 41 41 42 42 43 43 43 44 44 44 44 43 43 43
26 28 29 30 31 32 33 34 34 35 35 35 35 35 35 35 35 34 34 35 35 35 36 36 36 36 35 35 35 35 36 36 36 36 36 37 37 37 37 37 38 38 38 38 38 38 39 39 39 40 40 41 41 41 41 41 42 42 42 43 44 44 44 45 45 44 44 44 44
28 29 30 31 32 33 33 33 34 34 35 35 35 35 35 35 35 35 35 35 35 35 36 36 36 35 35 35 35 35 36 36 36 36 37 37 37 37 38 38 38 38 38 39 39 39 39 39 40 40 40 41 41 42 42 42 42 42 43 43 43 44 44 45 45 44 44 44 45
29 30 31 32 32 33 33 33 34 34 34 34 35 35 35 35 35 35 35 35 35 35 35 35 35 35 35 35 35 35 35 36 36 36 37 38 38 38 38 39 39 39 39 39 39 39 39 40 40 40 40 41 41 42 42 42 42 42 43 43 43 44 44 44 44 44 44 44 45
30 31 31 31 32 32 32 33 33 34 34 34 35 35 35 35 35 35 35 35 35 35 35 35 35 35 35 35 35 35 36 36 37 37 38 38 39 39 39 39 40 40 40 40 40 40 40 40 40 40 40 41 41 42 42 42 42 42 42 43 43 43 44 44 44 44 44 44 44
30 31 31 31 32 32 32 33 33 34 34 34 35 35 35 35 35 35 35 34 34 34 34 34 34 34 35 35 35 35 36 37 37 38 38 39 39 39 40 40 40 40 40 40 40 40 40 40 40 40 40 41 41 41 41 41 42 42 42 42 43 43 43 43 44 43 43 43 44
30 30 31 31 32 32 33 33 33 34 34 35 35 35 35 35 35 35 35 34 34 34 34 34 34 35 35 35 36 36 36 37 38 39 39 39 39 40 40 40 40 40 40 40 40 40 40 40 40 40 40 40 40 41 41 41 41 41 42 42 42 43 43 43 42 42 42 42 42
30 30 31 31 32 32 33 33 34 34 35 35 35 35 35 35 35 35 35 35 34 34 34 35 35 35 36 36 37 37 38 38 38 39 39 40 40 40 40 40 40 40 40 40 40 40 40 40 40 40 40 39 40 40 40 40 40 40 41 41 42 42 42 42 41 41 40 40 40
30 31 31 32 33 33 34 34 35 35 36 36 36 36 36 36 36 35 35 35 35 35 35 36 36 37 37 38 38 39 39 39 39 40 40 40 40 40 40 40 40 40 41 41 41 41 40 40 39 39 39 39 39 39 39 39 39 40 40 40 41 41 41 41 40 40 39 39 39
31 32 33 33 34 35 35 36 36 36 37 37 37 37 37 37 37 36 36 36 36 36 36 37 37 38 39 39 39 40 40 40 40 40 40 40 40 40 40 40 40 41 41 41 41 40 40 40 39 39 39 39 39 39 39 39 39 40 40 41 41 41 41 40 39 39 38 38 38
32 33 34 35 35 36 37 37 37 38 38 38 38 38 38 38 38 37 37 37 37 37 38 38 39 39 39 40 40 40 41 41 41 41 41 40 40 40 40 40 40 40 41 41 40 40 40 39 39 39 39 38 39 39 39 39 39 40 41 41 41 41 40 40 39 38 38 37 37
34 35 36 36 37 37 38 38 38 39 39 39 39 39 39 39 38 38 38 38 38 38 39 39 39 40 40 40 40 41 41 42 42 42 41 41 41 40 40 40 40 40 40 41 40 40 39 39 38 38 38 38 38 39 39 39 40 40 41 42 42 42 41 40 38 37 36 36 35
36 37 37 38 38 38 39 39 39 39 39 39 39 39 39 39 39 39 39 39 39 39 39 40 40 40 41 41 41 41 41 41 41 42 42 41 41 41 40 40 40 40 40 41 40 40 38 37 36 35 36 36 37 38 39 39 40 40 41 41 42 41 41 40 38 37 35 35 34
37 38 38 39 39 39 39 39 39 39 39 39 39 39 39 39 39 39 39 40 40 40 40 40 40 41 41 41 41 41 41 41 41 41 41 41 41 41 40 40 40 40 41 41 40 40 38 36 34 33 33 34 36 37 38 39 40 40 40 41 40 40 40 39 38 37 36 34 34
38 39 39 39 39 39 39 39 38 38 38 38 38 38 38 38 39 39 40 40 40 40 40 40 40 40 40 40 40 40 40 40 40 40 40 40 40 40 40 40 40 40 40 40 40 39 37 35 33 33 33 33 34 36 38 39 39 40 40 40 39 39 38 39 38 37 36 35 34
38 39 39 40 39 39 38 38 38 37 37 37 37 38 38 39 39 39 39 40 40 40 40 40 39 39 39 39 40 40 40 40 39 39 39 39 39 39 40 40 40 40 40 40 39 38 37 35 34 34 33 32 33 35 36 37 38 38 38 38 39 38 38 38 37 37 36 35 35
39 39 39 39 39 39 38 38 37 37 37 37 38 38 38 39 39 39 39 39 39 39 39 39 39 39 39 39 39 39 39 38 38 38 38 38 38 38 39 39 40 40 40 40 39 38 37 36 35 34 33 32 32 33 34 35 36 37 38 38 38 38 37 37 37 36 36 35 35
39 39 39 39 39 38 38 38 38 38 38 38 38 38 38 38 38 38 38 38 38 38 38 38 38 38 38 38 38 38 38 37 36 36 36 37 38 38 39 39 40 41 41 40 39 38 36 35 34 33 32 31 31 32 33 34 36 37 38 38 37 37 36 36 35 35 35 35 36
39 39 39 39 39 39 38 38 38 38 38 37 37 37 37 37 37 38 38 38 38 38 38 38 38 38 38 38 37 37 36 36 36 35 36 36 37 38 39 40 41 41 41 40 38 37 35 34 33 33 32 32 31 31 32 34 35 36 36 36 36 35 34 34 34 35 35 35 35
39 39 39 39 39 39 39 39 38 38 37 37 37 37 37 37 37 38 38 38 38 38 38 37 37 37 37 37 37 36 36 35 36 36 36 36 37 38 39 40 41 41 40 39 37 35 34 34 33 33 32 32 31 31 32 33 33 33 33 33 33 33 33 33 34 34 34 34 34
39 39 39 39 39 39 39 38 38 38 38 38 37 37 37 38 38 38 38 37 37 37 37 36 36 37 36 36 36 36 35 35 35 36 37 37 37 38 39 40 40 40 39 38 36 35 35 34 33 32 31 30 29 30 30 31 31 31 31 31 31 31 31 32 32 32 32 32 32
39 39 39 39 39 38 38 38 38 38 38 38 38 38 37 37 38 38 37 37 36 36 36 36 36 36 35 35 35 35 35 35 36 36 37 37 38 38 39 39 40 39 38 37 36 35 34 33 31 30 29 28 28 28 29 29 29 30 30 30 30 30 30 30 30 30 30 30 30
39 39 39 39 38 38 39 39 39 39 38 38 38 38 38 37 37 37 37 36 36 36 36 36 35 35 35 34 34 34 34 35 36 36 36 37 38 38 39 39 40 39 37 36 35 33 32 31 29 28 27 27 27 28 28 28 29 29 29 29 29 29 29 29 29 30 30 30 30
39 39 38 38 39 39 39 39 39 39 39 38 38 38 37 37 36 36 36 36 36 35 35 35 35 35 34 34 34 34 34 35 36 36 36 36 37 38 39 39 39 38 36 35 33 32 30 29 28 27 27 27 28 28 28 29 29 29 29 29 29 29 29 30 31 31 32 32 31
39 38 39 39 39 39 39 39 39 39 38 38 37 37 37 37 36 36 35 35 35 35 35 35 34 34 34 34 34 34 35 35 35 36 36 36 36 37 38 39 39 37 35 33 32 31 30 29 28 27 27 28 28 29 29 29 29 29 29 29 29 30 30 31 32 33 33 32 32
39 39 39 39 39 40 39 39 39 38 38 38 37 37 36 36 36 36 35 34 33 34 34 34 34 34 34 34 35 35 35 35 35 35 36 36 36 37 37 38 37 36 34 32 31 31 30 29 28 27 27 28 28 29 29 29 29 30 30 30 31 31 32 32 33 33 33 32 31
40 39 39 39 39 39 39 39 38 38 37 37 37 36 36 36 35 35 34 33 33 33 33 33 34 34 34 35 35 35 36 35 35 35 35 36 36 37 36 36 36 35 33 32 31 31 30 29 28 27 27 27 28 28 28 29 29 30 31 32 32 33 33 33 33 33 32 31 30
40 40 39 39 39 39 39 38 37 37 36 36 36 36 36 35 35 34 34 33 32 32 32 33 34 34 34 34 35 35 36 36 35 35 35 36 36 36 35 35 34 34 33 32 31 30 29 28 27 27 26 26 26 27 27 28 30 31 32 33 34 34 34 33 33 32 32 32 31
40 39 39 39 38 38 38 37 37 36 36 35 35 35 35 35 34 34 33 33 33 33 33 34 34 35 35 34 34 35 35 36 35 35 35 36 36 36 34 33 33 33 32 32 31 30 29 28 27 26 25 25 25 26 27 29 31 32 33 33 34 34 34 34 33 33 33 33 33
Wind_Direction
307 308 309 310 311 312 314 315 316 317 318 319 320 321 321 321 321 321 321 320 320 319 318 317 316 316 315 315 313 312 310 308 307 306 305 304 304 304 304 304 305 305 306 307 307 307 307 305 304 301 298 295 294 293 292 292 292 292 291 290 290 289 288 286 285 284 284 283 282
308 309 310 312 313 314 316 317 318 319 321 321 322 323 323 323 322 321 321 320 319 319 318 317 317 316 315 314 313 311 309 307 306 305 303 302 302 302 302 302 302 303 303 304 304 304 304 304 302 299 296 294 293 292 292 292 292 292 292 291 290 289 287 285 285 284 284 283 282
309 311 313 314 316 317 318 319 320 322 322 323 323 323 323 322 321 321 320 320 319 318 318 317 317 316 315 314 312 311 309 307 306 304 303 302 301 301 300 300 300 300 301 301 301 301 302 301 300 298 295 293 291 290 290 291 291 291 290 290 289 288 286 285 285 284 283 282 280
312 313 315 316 317 317 318 319 320 321 321 321 321 321 321 321 321 320 320 319 319 318 318 317 316 315 314 313 312 310 309 307 306 304 303 302 301 300 299 299 299 299 299 299 299 300 300 300 298 296 293 291 290 289 288 289 288 288 287 287 286 285 284 284 283 283 282 280 279
314 315 315 316 316 317 318 318 319 320 319 320 320 320 320 320 320 320 319 319 318 317 316 315 314 313 312 311 310 309 308 307 306 304 303 302 301 300 299 299 298 298 298 298 298 298 298 298 296 293 291 290 288 287 287 288 287 285 284 284 283 282 281 281 281 280 279 279 278
315 315 316 316 316 317 317 317 318 318 318 318 319 319 319 319 319 318 317 316 315 314 313 313 312 311 311 310 309 308 307 306 305 304 303 302 301 300 300 299 298 298 298 297 297 297 297 296 294 292 290 288 287 287 288 288 286 285 283 282 280 279 279 278 278 278 277 277 276
315 316 316 316 316 316 316 316 317 317 317 317 318 318 317 317 316 316 315 314 313 312 312 311 311 310 310 310 309 308 307 306 305 304 303 302 301 301 300 299 299 298 298 297 297 297 296 295 293 292 290 288 287 287 287 287 286 285 283 282 281 279 278 277 276 276 275 275 275
317 316 316 316 316 316 316 316 316 316 316 316 316 316 316 315 314 314 313 313 312 311 311 310 310 310 309 309 308 308 307 306 305 304 303 303 302 301 301 300 300 299 298 298 297 297 296 295 293 291 290 288 287 287 287 286 285 284 282 282 281 280 278 277 276 275 274 274 275
317 317 317 317 316 316 316 316 315 315 315 315 315 315 314 314 314 313 313 313 312 311 310 310 310 309 309 308 308 308 307 306 306 305 304 303 303 302 302 301 301 300 299 298 298 297 296 295 293 292 290 289 287 286 286 285 283 282 281 280 280 280 279 278 277 276 275 275 274
318 317 317 317 317 316 316 315 315 315 314 314 314 314 314 314 314 314 313 313 312 311 311 310 310 309 309 308 308 307 307 306 306 305 304 304 303 303 302 302 301 300 300 299 298 297 296 295 294 293 292 291 290 289 287 286 284 283 282 281 281 280 280 280 279 278 277 276 275
318 318 318 318 317 317 316 316 315 315 315 314 315 315 315 315 315 314 314 313 312 311 311 310 309 309 308 308 308 307 307 306 306 305 305 304 303 303 302 302 301 300 300 299 298 298 297 296 296 295 295 294 293 292 291 290 288 287 286 285 284 284 284 284 283 282 281 280 279
320 320 319 319 318 317 317 316 316 316 316 316 316 317 317 316 316 315 314 313 312 311 310 309 309 308 308 308 308 307 307 306 306 305 304 304 303 303 302 301 301 300 300 300 299 299 298 298 298 297 297 296 295 294 294 293 292 291 290 290 289 288 287 287 287 286 284 283 281
321 321 320 320 319 319 318 318 318 318 318 318 318 318 318 317 316 315 314 313 312 312 311 310 309 309 309 309 308 308 307 307 306 305 304 304 303 303 302 302 301 301 301 300 300 300 300 299 299 298 297 297 296 295 295 294 294 293 292 292 291 291 290 290 289 288 286 284 282
322 322 321 321 320 320 320 320 320 320 320 320 319 318 317 316 315 315 314 314 313 312 312 311 311 310 310 309 309 308 308 307 306 305 305 304 304 303 303 302 302 302 302 301 301 301 300 300 300 299 298 297 296 296 296 295 294 293 293 292 292 291 291 290 289 288 286 284 283
323 322 322 322 322 321 321 321 321 321 320 320 319 318 317 316 316 315 315 314 314 313 313 313 312 312 311 310 310 309 308 308 307 306 306 305 305 304 304 304 303 303 303 302 302 301 301 300 300 299 298 297 297 296 296 295 294 294 293 292 291 291 290 289 288 287 285 284 283
324 323 323 323 323 323 323 322 322 321 320 319 319 318 317 317 316 316 316 315 315 315 314 314 313 313 312 311 311 310 309 308 308 307 307 307 306 306 306 306 305 305 304 304 303 302 301 300 300 299 299 298 297 297 296 295 295 294 293 292 291 290 289 288 287 286 285 285 284
325 325 325 325 325 324 324 323 322 321 320 320 319 319 318 318 317 317 317 316 316 316 315 314 314 313 312 312 311 311 310 310 309 309 309 309 308 308 308 308 307 307 306 305 304 303 302 302 301 300 299 299 298 297 297 296 295 294 293 292 291 289 288 288 287 286 286 285 285
327 327 327 327 326 325 324 324 323 322 321 320 320 319 319 319 318 318 317 317 317 316 316 315 314 313 313 312 312 311 311 311 311 311 310 310 310 310 310 309 309 308 307 307 306 305 304 303 302 301 300 300 299 298 297 296 295 294 293 292 291 289 289 288 288 287 287 287 286
329 328 328 328 327 326 325 324 323 323 322 321 321 320 320 319 319 318 318 317 317 316 316 315 314 313 313 313 313 313 313 312 312 312 312 311 311 311 311 311 310 309 308 308 307 306 305 305 304 303 302 301 300 299 298 297 296 294 293 292 291 290 289 289 289 288 288 288 287
330 329 329 328 327 326 325 324 323 323 322 321 321 320 320 319 319 318 318 317 317 316 315 315 315 315 315 315 315 315 314 313 313 313 313 313 312 312 312 312 311 310 309 309 308 307 307 306 305 305 304 303 302 301 299 298 296 295 294 292 291 291 290 290 290 290 289 288 288
330 329 328 327 326 325 324 323 323 322 322 321 321 320 320 319 319 318 318 317 317 316 316 316 316 317 317 317 317 316 315 314 314 314 314 314 313 313 313 312 311 311 310 310 309 309 308 308 307 307 306 305 304 302 301 299 298 296 295 294 293 292 292 292 292 291 291 290 290
329 328 327 326 325 324 323 322 322 321 321 320 320 320 320 319 319 318 318 317 317 317 317 318 318 318 318 318 318 317 316 315 315 315 314 314 314 313 313 312 311 311 311 310 310 310 309 309 309 308 308 307 305 304 303 301 299 298 297 296 295 294 294 294 293 293 293 292 292
328 327 326 325 324 323 322 321 320 320 320 320 320 320 320 320 319 319 318 318 318 318 319 319 319 319 319 318 318 318 317 317 316 316 315 315 314 313 313 312 311 311 311 311 311 311 311 311 310 310 309 308 307 305 304 302 301 300 299 298 297 296 296 295 295 294 294 293 293
327 326 325 324 323 322 321 320 320 319 319 320 320 320 320 320 319 319 319 319 319 319 319 319 319 319 319 318 318 318 318 317 317 316 316 315 314 313 313 312 311 311 311 311 311 311 311 310 310 309 308 308 306 305 304 302 301 300 298 298 297 296 296 295 294 293 292 292 292
326 325 324 323 322 321 321 320 320 320 320 320 320 320 320 320 320 320 320 320 320 320 320 320 320 319 319 319 318 318 318 317 316 316 315 315 314 314 313 312 311 311 311 311 312 311 310 309 307 306 305 304 303 302 301 300 298 297 296 296 295 295 295 294 294 293 292 292 291
324 323 323 322 322 321 321 321 321 321 321 321 321 321 321 320 320 320 320 321 321 321 321 320 320 320 319 318 318 318 317 316 316 315 314 314 314 314 313 312 311 311 311 311 311 310 309 307 304 301 300 299 298 298 297 296 295 294 294 294 294 294 294 294 294 294 294 293 293
324 323 322 322 322 323 323 323 323 323 323 323 322 321 321 320 320 320 320 321 321 321 321 320 320 319 318 317 317 317 316 316 315 314 314 313 313 313 313 312 311 310 310 310 310 309 307 304 301 299 297 295 294 294 294 293 293 293 293 293 294 294 294 295 296 296 296 294 293
323 323 322 323 323 324 324 324 324 324 324 323 323 322 321 321 321 321 320 320 321 320 320 319 318 317 317 316 316 316 315 315 314 314 313 312 312 311 311 310 309 309 308 308 307 306 304 301 300 298 296 294 293 292 292 293 293 293 293 294 294 295 295 296 296 296 296 295 293
323 323 323 324 325 325 325 326 326 326 325 325 324 323 322 321 321 320 320 319 319 318 318 317 317 316 316 315 315 315 315 314 313 312 311 310 309 309 308 308 307 307 307 306 306 305 303 302 300 299 297 296 294 293 292 292 292 293 293 293 294 294 295 295 295 295 294 294 293
324 324 324 325 325 326 326 327 327 327 327 325 324 323 322 320 320 319 318 318 317 317 316 317 316 315 315 314 314 314 313 312 311 310 308 308 307 307 307 307 306 306 307 306 306 305 304 302 301 299 298 296 295 293 292 291 292 292 292 293 293 294 295 295 295 295 294 293 293
325 325 325 326 326 327 327 328 328 328 327 325 323 322 320 319 318 318 317 317 317 317 317 317 316 315 314 314 313 312 311 310 309 308 307 306 306 306 306 307 306 306 307 306 306 305 303 302 300 299 298 296 295 294 292 292 292 292 293 293 294 295 295 295 294 294 293 293 293
326 326 326 327 327 328 328 328 328 327 326 324 322 321 319 318 318 318 318 318 317 317 317 316 315 314 314 313 312 311 310 309 308 308 307 306 306 306 306 306 306 306 306 306 305 304 302 301 300 299 298 297 296 295 294 294 294 294 294 294 295 295 295 294 294 293 293 293 293
327 327 327 328 328 328 328 328 327 325 324 323 321 320 319 319 318 318 319 318 318 317 316 315 314 313 313 312 311 311 309 309 308 308 307 306 306 305 306 306 305 305 306 305 304 303 303 302 302 301 301 300 300 298 297 297 296 296 296 295 295 294 294 294 293 293 293 294 294
328 328 329 328 328 327 327 326 325 324 323 322 321 320 320 319 319 318 318 318 317 316 315 314 313 313 312 311 310 309 309 308 308 307 307 306 306 305 305 305 305 306 306 305 305 304 304 305 305 306 305 305 303 302 301 300 299 298 298 297 296 295 295 295 295 295 296 297 298
330 329 329 328 327 326 325 325 324 323 322 321 320 320 320 319 318 318 318 318 317 316 315 315 314 313 312 311 309 308 308 308 307 307 306 306 306 306 305 305 306 306 306 306 306 307 308 309 310 310 309 308 306 305 303 302 301 300 299 298 298 298 298 299 300 301 302 303 303
329 328 327 326 325 325 324 324 324 323 322 321 320 320 319 319 318 318 318 318 317 315 314 314 314 312 311 310 309 308 307 306 306 306 306 306 306 306 306 306 307 307 307 307 308 310 311 312 313 312 311 309 307 306 305 304 303 301 300 300 300 301 302 304 305 305 306 306 306
327 326 325 324 324 324 324 324 323 322 321 320 319 319 318 318 318 318 318 317 316 314 313 313 312 311 310 309 308 307 306 306 306 306 306 306 306 306 306 307 307 308 309 310 311 313 314 314 314 312 311 309 308 306 305 304 303 302 302 302 302 303 305 306 307 307 307 306 306
326 325 324 324 324 323 323 323 322 321 320 319 318 318 318 318 317 317 317 316 314 313 312 311 310 309 308 308 307 306 306 306 305 306 306 306 306 306 306 307 307 308 310 311 313 314 315 314 313 312 310 308 306 305 304 303 303 303 303 304 304 305 306 307 307 307 306 307 307
324 324 323 323 323 323 322 322 321 320 319 318 318 317 317 317 317 316 316 315 313 312 310 309 308 308 308 307 307 306 306 306 306 305 306 306 306 307 307 306 307 308 311 313 314 315 315 314 313 311 309 307 305 304 304 304 303 304 304 305 305 306 306 307 307 307 307 308 308
323 323 322 322 322 322 321 321 320 319 318 317 316 316 316 316 316 316 315 314 312 310 308 307 307 307 307 307 306 306 306 306 306 306 306 306 307 307 307 306 307 308 311 313 314 315 315 315 313 311 309 307 306 305 305 305 304 304 304 305 305 305 306 307 308 308 308 308 308
321 322 322 322 322 321 320 319 318 317 317 316 316 316 316 316 316 315 314 313 311 309 308 307 307 307 307 307 306 305 305 306 306 306 306 306 307 308 308 307 307 308 311 313 314 315 315 315 314 312 310 309 308 308 307 305 304 303 304 304 304 304 305 307 308 308 308 308 308
Height
1532 1531 1530 1530 1529 1528 1527 1526 1525 1525 1524 1523 1522 1521 1520 1520 1519 1518 1517 1516 1515 1514 1513 1512 1511 1510 1510 1509 1508 1507 1506 1505 1505 1504 1503 1502 1501 1500 1499 1498 1497 1496 1495 1494 1493 1492 1490 1489 1488 1487 1485 1485 1484 1483 1482 1482 1481 1481 1480 1479 1478 1477 1476 1475 1475 1474 1473 1472 1471
1530 1530 1529 1528 1527 1526 1525 1525 1524 1523 1522 1521 1520 1520 1519 1518 1517 1516 1515 1515 1514 1513 1512 1510 1510 1509 1508 1507 1506 1505 1505 1504 1503 1502 1501 1500 1499 1498 1497 1496 1495 1494 1493 1492 1491 1490 1489 1488 1487 1485 1484 1483 1481 1480 1480 1479 1479 1478 1477 1476 1475 1475 1474 1473 1472 1471 1471 1470 1469
1529 1528 1527 1526 1525 1525 1524 1523 1522 1521 1521 1520 1519 1518 1518 1516 1515 1515 1514 1513 1512 1511 1510 1509 1508 1507 1506 1505 1505 1504 1503 1502 1501 1500 1499 1498 1497 1496 1495 1495 1494 1492 1491 1490 1489 1488 1487 1486 1485 1484 1482 1481 1480 1479 1478 1477 1476 1475 1475 1474 1473 1472 1471 1470 1469 1469 1468 1467 1466
1528 1527 1526 1525 1525 1524 1523 1522 1521 1520 1520 1519 1518 1517 1516 1515 1514 1513 1512 1511 1510 1509 1508 1507 1506 1505 1504 1503 1502 1502 1501 1500 1499 1498 1497 1496 1495 1494 1494 1493 1491 1490 1490 1489 1487 1486 1485 1484 1483 1481 1480 1479 1478 1477 1476 1475 1474 1473 1472 1471 1470 1470 1469 1467 1467 1466 1465 1464 1464
1526 1525 1525 1524 1523 1523 1522 1521 1520 1519 1519 1518 1517 1516 1515 1514 1513 1511 1510 1509 1508 1507 1506 1505 1505 1503 1502 1501 1500 1500 1499 1498 1497 1496 1495 1494 1493 1492 1491 1490 1490 1488 1487 1486 1485 1484 1483 1482 1481 1479 1478 1477 1475 1475 1474 1473 1472 1471 1470 1469 1468 1467 1466 1465 1464 1463 1463 1461 1461
1525 1525 1524 1523 1522 1521 1520 1520 1519 1518 1517 1516 1515 1515 1514 1512 1511 1510 1509 1508 1507 1506 1505 1504 1502 1501 1500 1499 1498 1497 1496 1495 1494 1493 1492 1491 1490 1489 1489 1488 1487 1486 1485 1484 1483 1482 1481 1480 1479 1477 1475 1475 1473 1472 1471 1471 1470 1469 1468 1466 1465 1465 1464 1462 1461 1460 1460 1459 1458
1524 1523 1522 1522 1521 1520 1519 1518 1518 1517 1516 1515 1514 1513 1512 1511 1510 1509 1508 1506 1505 1504 1503 1502 1500 1499 1498 1497 1496 1495 1494 1493 1491 1490 1490 1489 1487 1487 1486 1485 1484 1483 1482 1481 1480 1480 1479 1478 1476 1475 1473 1472 1471 1470 1469 1468 1467 1466 1465 1464 1463 1462 1461 1460 1459 1458 1457 1456 1455
1523 1522 1521 1520 1520 1519 1518 1517 1516 1515 1515 1514 1513 1512 1510 1510 1508 1507 1506 1505 1503 1502 1501 1500 1498 1497 1496 1495 1493 1492 1491 1490 1489 1488 1487 1486 1485 1484 1483 1482 1481 1480 1480 1479 1478 1477 1476 1475 1473 1472 1470 1470 1468 1467 1466 1465 1465 1463 1462 1461 1460 1459 1459 1457 1456 1455 1455 1453 1452
1521 1520 1520 1519 1518 1517 1516 1515 1515 1514 1513 1512 1511 1510 1509 1508 1506 1505 1504 1502 1501 1500 1499 1497 1496 1495 1494 1492 1491 1490 1489 1487 1486 1485 1484 1483 1482 1481 1480 1479 1478 1477 1476 1476 1475 1474 1473 1472 1470 1469 1468 1467 1465 1464 1463 1463 1462 1460 1459 1458 1457 1456 1455 1455 1454 1453 1452 1450 1450
1520 1519 1518 1518 1517 1516 1515 1514 1513 1512 1511 1510 1509 1508 1507 1506 1505 1503 1502 1500 1499 1498 1496 1495 1494 1492 1491 1490 1489 1487 1486 1485 1484 1482 1481 1480 1479 1478 1477 1476 1475 1474 1473 1473 1472 1471 1470 1468 1467 1466 1465 1464 1463 1461 1460 1460 1459 1458 1456 1455 1454 1453 1452 1451 1451 1450 1449 1447 1446
1519 1518 1517 1516 1515 1514 1513 1512 1511 1510 1509 1508 1507 1506 1505 1503 1502 1501 1500 1498 1497 1495 1494 1493 1491 1490 1489 1487 1486 1485 1484 1482 1481 1480 1479 1477 1476 1475 1475 1473 1472 1471 1470 1470 1469 1468 1466 1465 1464 1462 1461 1460 1460 1458 1457 1456 1455 1454 1453 1451 1451 1450 1448 1447 1447 1446 1445 1444 1443
1518 1517 1515 1515 1514 1513 1511 1510 1509 1508 1507 1506 1505 1504 1502 1501 1500 1499 1497 1496 1494 1493 1491 1490 1489 1488 1486 1485 1483 1482 1481 1480 1478 1477 1476 1475 1474 1473 1471 1470 1470 1468 1467 1466 1465 1465 1463 1462 1461 1459 1458 1457 1456 1455 1454 1453 1451 1450 1449 1448 1447 1446 1445 1443 1443 1442 1441 1440 1439
1516 1515 1514 1513 1512 1511 1510 1509 1507 1506 1505 1504 1502 1501 1500 1499 1497 1496 1495 1493 1492 1490 1489 1488 1486 1485 1484 1482 1481 1480 1478 1477 1476 1475 1473 1472 1471 1470 1469 1468 1467 1465 1465 1464 1463 1462 1460 1459 1458 1456 1455 1454 1453 1452 1451 1450 1448 1447 1445 1444 1443 1442 1441 1440 1439 1439 1438 1436 1435
1515 1514 1513 1512 1510 1509 1508 1507 1505 1504 1503 1501 1500 1499 1498 1496 1495 1494 1492 1491 1490 1488 1486 1485 1484 1482 1481 1480 1478 1477 1476 1474 1473 1472 1470 1469 1468 1467 1466 1465 1464 1463 1462 1461 1460 1459 1458 1456 1455 1454 1452 1451 1450 1449 1448 1446 1445 1444 1442 1441 1440 1439 1437 1436 1435 1435 1434 1432 1431
1513 1512 1511 1510 1509 1508 1506 1505 1504 1502 1501 1500 1498 1497 1496 1494 1493 1491 1490 1489 1487 1485 1484 1483 1481 1480 1479 1477 1476 1475 1473 1472 1470 1469 1468 1467 1465 1465 1463 1462 1461 1460 1459 1458 1457 1456 1455 1454 1452 1451 1449 1448 1446 1445 1444 1443 1442 1440 1439 1438 1436 1435 1434 1433 1432 1431 1430 1429 1427
1512 1511 1510 1508 1507 1506 1505 1503 1502 1500 1499 1498 1496 1495 1494 1492 1490 1489 1488 1486 1485 1483 1482 1480 1479 1477 1476 1475 1474 1472 1470 1469 1468 1467 1465 1464 1463 1462 1460 1460 1458 1457 1456 1455 1454 1453 1452 1450 1449 1448 1446 1445 1443 1442 1441 1440 1438 1437 1436 1435 1433 1432 1430 1429 1428 1427 1426 1425 1424
1510 1509 1508 1507 1505 1504 1503 1501 1500 1499 1497 1495 1494 1493 1491 1490 1488 1487 1485 1484 1482 1481 1479 1478 1476 1475 1474 1472 1471 1470 1468 1467 1465 1464 1463 1461 1460 1459 1458 1457 1455 1454 1453 1452 1451 1450 1448 1447 1446 1445 1443 1441 1440 1439 1437 1436 1435 1434 1432 1431 1430 1428 1427 1426 1425 1424 1422 1421 1420
1509 1507 1506 1505 1504 1502 1501 1500 1498 1497 1495 1494 1492 1491 1489 1488 1486 1485 1483 1482 1480 1479 1477 1475 1474 1473 1471 1470 1468 1467 1466 1464 1463 1461 1460 1459 1458 1456 1455 1454 1452 1451 1450 1449 1448 1446 1445 1444 1443 1441 1440 1438 1437 1435 1434 1433 1431 1430 1429 1427 1426 1425 1423 1422 1421 1420 1419 1418 1416
1507 1505 1504 1503 1502 1500 1499 1498 1496 1495 1493 1492 1490 1489 1487 1486 1484 1482 1481 1479 1478 1476 1475 1473 1472 1470 1469 1468 1466 1465 1463 1462 1460 1459 1457 1456 1455 1454 1452 1451 1450 1448 1447 1446 1445 1443 1442 1441 1440 1438 1437 1435 1434 1432 1431 1429 1428 1426 1425 1424 1422 1421 1420 1419 1418 1417 1416 1415 1413
1505 1504 1503 1501 1500 1499 1497 1496 1494 1493 1491 1490 1488 1487 1485 1484 1482 1480 1479 1477 1476 1475 1473 1471 1470 1468 1466 1465 1464 1462 1461 1460 1458 1456 1455 1454 1452 1451 1449 1448 1446 1445 1444 1443 1441 1440 1439 1437 1436 1435 1433 1432 1430 1429 1427 1426 1425 1423 1421 1420 1419 1418 1416 1415 1415 1413 1412 1411 1410
1503 1502 1501 1500 1498 1497 1495 1494 1492 1491 1489 1488 1486 1485 1483 1481 1480 1478 1477 1475 1474 1472 1471 1469 1467 1466 1464 1463 1461 1460 1458 1457 1455 1454 1452 1450 1449 1448 1446 1445 1443 1442 1440 1439 1438 1437 1435 1434 1433 1431 1430 1429 1427 1425 1424 1423 1421 1420 1418 1417 1415 1414 1413 1412 1411 1410 1409 1408 1407
1502 1500 1499 1498 1496 1495 1493 1492 1490 1489 1487 1485 1484 1482 1481 1479 1478 1476 1475 1473 1472 1470 1469 1467 1465 1464 1462 1460 1459 1457 1455 1454 1453 1451 1450 1448 1446 1445 1443 1442 1440 1439 1437 1436 1435 1434 1432 1431 1430 1428 1427 1425 1423 1422 1420 1419 1418 1416 1414 1413 1412 1411 1410 1409 1408 1407 1406 1405 1404
1500 1499 1497 1496 1494 1493 1491 1490 1488 1486 1485 1483 1482 1480 1479 1477 1475 1474 1472 1471 1470 1468 1466 1465 1463 1461 1460 1458 1456 1455 1453 1451 1450 1448 1447 1445 1444 1442 1440 1439 1438 1436 1434 1433 1432 1430 1429 1428 1426 1425 1423 1422 1420 1419 1417 1416 1414 1412 1411 1410 1408 1407 1407 1406 1405 1404 1403 1402 1401
1498 1497 1495 1494 1492 1491 1489 1488 1486 1484 1482 1481 1479 1478 1476 1475 1473 1472 1470 1469 1467 1466 1464 1462 1460 1459 1457 1455 1454 1452 1450 1448 1447 1445 1444 1442 1441 1439 1438 1436 1435 1433 1431 1430 1429 1428 1426 1425 1423 1422 1420 1419 1417 1415 1414 1413 1411 1410 1408 1406 1405 1404 1404 1403 1402 1402 1401 1400 1399
1496 1495 1493 1492 1490 1489 1487 1485 1484 1482 1480 1479 1477 1475 1474 1472 1471 1469 1468 1466 1465 1463 1462 1460 1458 1456 1455 1453 1451 1450 1448 1446 1444 1442 1441 1439 1438 1437 1435 1433 1432 1430 1428 1427 1426 1425 1424 1423 1421 1420 1418 1416 1415 1413 1411 1410 1409 1407 1406 1404 1403 1402 1401 1400 1399 1399 1398 1397 1397
1495 1493 1491 1490 1488 1486 1485 1483 1481 1480 1478 1476 1475 1473 1472 1470 1469 1467 1465 1464 1462 1461 1459 1457 1455 1454 1452 1450 1449 1447 1445 1444 1442 1440 1438 1436 1435 1434 1432 1430 1429 1427 1425 1424 1423 1422 1421 1420 1420 1418 1417 1415 1413 1411 1409 1407 1406 1405 1404 1402 1401 1400 1399 1397 1396 1396 1395 1395 1394
1493 1491 1489 1488 1486 1484 1483 1481 1479 1478 1476 1474 1473 1471 1470 1468 1467 1465 1463 1462 1460 1458 1457 1455 1453 1451 1450 1448 1446 1445 1443 1441 1440 1438 1436 1434 1432 1430 1429 1428 1426 1425 1423 1422 1421 1420 1419 1418 1417 1417 1415 1414 1412 1410 1408 1405 1404 1402 1401 1400 1399 1397 1396 1395 1394 1393 1392 1392 1391
1490 1489 1487 1485 1484 1482 1480 1479 1477 1476 1474 1472 1471 1469 1468 1466 1465 1463 1461 1459 1458 1456 1454 1452 1451 1449 1447 1445 1444 1442 1440 1439 1437 1435 1433 1431 1430 1428 1427 1425 1424 1422 1421 1420 1419 1418 1417 1416 1415 1414 1413 1412 1410 1408 1405 1403 1401 1400 1399 1397 1396 1395 1394 1393 1392 1391 1390 1389 1389
1489 1487 1485 1483 1482 1480 1478 1477 1475 1474 1472 1470 1469 1467 1465 1464 1462 1460 1459 1457 1455 1454 1452 1450 1449 1447 1445 1443 1441 1440 1438 1436 1435 1433 1431 1429 1427 1426 1425 1423 1421 1420 1419 1418 1416 1415 1414 1413 1412 1411 1410 1409 1408 1405 1403 1401 1400 1398 1396 1395 1394 1393 1392 1391 1390 1389 1388 1387 1386
1487 1485 1483 1481 1480 1478 1476 1475 1473 1472 1470 1468 1467 1465 1463 1462 1460 1459 1457 1455 1454 1452 1450 1448 1446 1445 1443 1441 1439 1437 1435 1434 1432 1431 1429 1427 1425 1424 1422 1420 1419 1417 1416 1415 1414 1412 1411 1410 1409 1408 1407 1406 1405 1403 1401 1399 1398 1396 1394 1393 1392 1391 1390 1389 1388 1387 1386 1385 1384
1485 1483 1481 1479 1478 1476 1475 1473 1471 1470 1468 1466 1465 1463 1461 1460 1458 1456 1455 1453 1451 1450 1448 1446 1445 1442 1440 1439 1437 1435 1433 1432 1430 1429 1427 1425 1423 1421 1420 1418 1416 1415 1413 1412 1411 1410 1409 1407 1406 1405 1404 1403 1402 1400 1399 1397 1395 1394 1392 1390 1390 1389 1388 1387 1385 1385 1384 1383 1382
1483 1481 1479 1477 1475 1474 1472 1471 1469 1468 1466 1465 1463 1461 1460 1458 1456 1455 1453 1451 1449 1447 1445 1444 1442 1440 1438 1436 1435 1433 1431 1430 1428 1426 1425 1423 1421 1419 1417 1415 1413 1412 1410 1410 1409 1407 1406 1405 1404 1402 1401 1400 1399 1398 1396 1394 1393 1391 1390 1389 1388 1386 1385 1385 1383 1382 1381 1381 1380
1481 1479 1477 1475 1474 1472 1470 1469 1467 1466 1464 1463 1461 1459 1457 1455 1454 1452 1450 1449 1447 1445 1443 1441 1440 1438 1436 1434 1432 1430 1429 1427 1426 1424 1422 1420 1419 1417 1415 1413 1411 1409 1408 1407 1406 1405 1403 1402 1401 1400 1398 1397 1396 1395 1393 1392 1391 1389 1388 1387 1385 1385 1383 1382 1381 1380 1379 1379 1378
1479 1477 1475 1473 1472 1470 1469 1467 1465 1464 1462 1460 1459 1457 1455 1453 1451 1450 1448 1446 1445 1443 1441 1440 1438 1436 1434 1432 1430 1429 1426 1425 1423 1422 1420 1418 1416 1415 1412 1410 1409 1407 1406 1405 1404 1402 1401 1400 1398 1397 1396 1395 1394 1392 1391 1390 1389 1387 1386 1384 1383 1382 1381 1380 1379 1378 1377 1376 1376
1477 1475 1473 1471 1470 1469 1467 1465 1464 1462 1460 1458 1456 1455 1453 1451 1450 1448 1446 1444 1442 1441 1439 1437 1435 1434 1432 1430 1429 1427 1425 1423 1421 1420 1418 1416 1414 1412 1410 1408 1406 1405 1404 1403 1401 1400 1399 1397 1396 1395 1394 1393 1391 1390 1389 1388 1386 1385 1384 1382 1381 1380 1379 1378 1377 1376 1375 1374 1374
1475 1473 1472 1470 1468 1467 1465 1463 1461 1460 1458 1456 1454 1452 1450 1449 1447 1446 1444 1442 1440 1438 1437 1435 1433 1431 1430 1428 1426 1425 1423 1421 1419 1417 1416 1414 1412 1410 1407 1405 1404 1402 1401 1400 1399 1398 1396 1395 1394 1393 1392 1391 1390 1388 1387 1385 1384 1383 1382 1380 1379 1378 1377 1376 1375 1374 1373 1372 1371
1474 1472 1470 1468 1466 1465 1463 1461 1459 1457 1455 1454 1452 1450 1448 1447 1445 1443 1442 1440 1438 1436 1434 1433 1431 1429 1428 1426 1424 1423 1421 1420 1417 1415 1413 1412 1410 1408 1405 1403 1401 1400 1399 1398 1397 1395 1394 1393 1392 1391 1390 1389 1388 1386 1385 1384 1382 1381 1380 1379 1377 1376 1375 1374 1373 1372 1371 1370 1369
1472 1470 1469 1466 1464 1463 1461 1459 1457 1455 1453 1451 1450 1448 1446 1445 1443 1441 1440 1439 1437 1434 1432 1430 1429 1427 1426 1424 1422 1420 1419 1417 1416 1414 1411 1410 1408 1406 1404 1401 1399 1397 1396 1396 1395 1394 1392 1391 1390 1390 1389 1388 1386 1385 1383 1382 1380 1379 1378 1376 1375 1374 1373 1372 1371 1370 1369 1368 1367
1470 1468 1466 1465 1463 1460 1459 1457 1455 1453 1451 1450 1448 1446 1445 1443 1441 1440 1438 1437 1435 1433 1430 1429 1427 1425 1424 1422 1420 1418 1416 1415 1414 1412 1410 1408 1406 1404 1402 1400 1397 1395 1394 1394 1393 1392 1390 1390 1389 1388 1387 1386 1385 1383 1382 1380 1379 1377 1375 1374 1373 1372 1371 1370 1369 1368 1366 1365 1365
1468 1466 1465 1463 1461 1459 1457 1455 1453 1451 1450 1448 1446 1444 1443 1441 1439 1438 1436 1435 1433 1431 1429 1427 1425 1423 1422 1420 1418 1416 1414 1412 1411 1410 1408 1406 1404 1402 1400 1398 1395 1394 1392 1392 1391 1390 1389 1388 1387 1386 1385 1384 1383 1381 1380 1379 1377 1375 1374 1373 1371 1370 1369 1368 1367 1366 1365 1363 1362
1466 1464 1462 1461 1459 1457 1455 1453 1451 1449 1448 1446 1444 1443 1441 1439 1437 1436 1434 1433 1431 1429 1427 1425 1423 1421 1420 1418 1416 1414 1412 1410 1408 1407 1406 1404 1402 1400 1398 1396 1394 1392 1390 1390 1389 1388 1387 1386 1385 1384 1383 1382 1381 1380 1378 1377 1375 1374 1372 1371 1370 1369 1367 1366 1365 1364 1363 1361 1360